When you browse on this site, cookies collect data to enhance your experience and personalize the content and advertising you see.
Visit our Privacy Policy to learn more. By continuing to use the site, you agree to this use of cookies and data.
  • In France
  • List of Countries
  • For 7 days
  • Water Temperature
  • Satellite Maps
  • Weather Map
  • Weather Widgets
  • user-avatar
    Login

    Hourly Weather Makoua

    Today, 17 November, Saturday

    Time Temperature Precipitation Wind Pressure Humidity
    00:00 +24°C° 0.3 mm 1 mps 727 mmHg 96%
    01:00 +23°C° 0 mm 1 mps 727 mmHg 96%
    02:00 +22°C° 0.8 mm 0 mps 727 mmHg 96%
    03:00 +22°C° 0.8 mm 0 mps 727 mmHg 95%
    04:00 +22°C° 0.8 mm 0 mps 727 mmHg 94%
    05:00 +22°C° 0.1 mm 0 mps 727 mmHg 94%
    06:00 +22°C° 0.1 mm 0 mps 727 mmHg 94%
    07:00 +23°C° 0 mm 0 mps 727 mmHg 92%
    08:00 +26°C° 0 mm 0 mps 727 mmHg 80%
    09:00 +28°C° 0 mm 0 mps 727 mmHg 68%
    10:00 +31°C° 0 mm 0 mps 728 mmHg 55%
    11:00 +33°C° 0 mm 0 mps 727 mmHg 50%
    12:00 +34°C° 0 mm 0 mps 726 mmHg 45%
    13:00 +35°C° 0 mm 0 mps 725 mmHg 40%
    14:00 +36°C° 0 mm 1 mps 725 mmHg 43%
    15:00 +35°C° 0 mm 1 mps 725 mmHg 46%
    16:00 +34°C° 0 mm 1 mps 724 mmHg 49%
    17:00 +32°C° 0 mm 1 mps 725 mmHg 56%
    18:00 +28°C° 0 mm 0 mps 725 mmHg 62%
    19:00 +27°C° 0 mm 0 mps 725 mmHg 68%
    20:00 +26°C° 0.5 mm 0 mps 726 mmHg 72%
    21:00 +25°C° 0.5 mm 0 mps 726 mmHg 77%
    22:00 +24°C° 0.5 mm 0 mps 727 mmHg 81%
    23:00 +23°C° 1.2 mm 0 mps 727 mmHg 86%

    Tomorrow, 18 November, Sunday

    Time Temperature Precipitation Wind Pressure Humidity
    00:00 +23°C° 1.2 mm 0 mps 726 mmHg 90%
    01:00 +22°C° 1.2 mm 0 mps 726 mmHg 95%
    02:00 +22°C° 0.4 mm 0 mps 726 mmHg 95%
    03:00 +22°C° 0.4 mm 0 mps 726 mmHg 96%
    04:00 +22°C° 0.4 mm 0 mps 726 mmHg 97%
    05:00 +22°C° 0.2 mm 0 mps 726 mmHg 96%
    06:00 +23°C° 0.2 mm 0 mps 726 mmHg 95%
    07:00 +23°C° 0.2 mm 0 mps 727 mmHg 94%
    08:00 +27°C° 0.6 mm 1 mps 727 mmHg 88%
    09:00 +28°C° 0.6 mm 1 mps 727 mmHg 83%
    10:00 +30°C° 0.6 mm 1 mps 727 mmHg 77%
    11:00 +31°C° 0.3 mm 1 mps 726 mmHg 66%
    12:00 +33°C° 0.3 mm 1 mps 726 mmHg 56%
    13:00 +35°C° 0.3 mm 1 mps 725 mmHg 45%
    14:00 +35°C° 0 mm 1 mps 725 mmHg 45%
    15:00 +35°C° 0 mm 1 mps 724 mmHg 44%
    16:00 +34°C° 0 mm 1 mps 723 mmHg 44%
    17:00 +32°C° 0 mm 1 mps 724 mmHg 51%
    18:00 +30°C° 0 mm 1 mps 724 mmHg 59%
    19:00 +28°C° 0 mm 1 mps 724 mmHg 67%
    20:00 +25°C° 0 mm 0 mps 725 mmHg 68%
    21:00 +25°C° 0 mm 0 mps 725 mmHg 69%
    22:00 +25°C° 0 mm 0 mps 726 mmHg 69%
    23:00 +24°C° 0.1 mm 0 mps 726 mmHg 73%

    Day after tomorrow, 19 November, Monday

    Time Temperature Precipitation Wind Pressure Humidity
    00:00 +26°C° 0.1 mm 1 mps 725 mmHg 76%
    01:00 +25°C° 0.1 mm 1 mps 725 mmHg 79%
    02:00 +25°C° 0.3 mm 1 mps 725 mmHg 84%
    03:00 +24°C° 0.3 mm 1 mps 725 mmHg 89%
    04:00 +24°C° 0.3 mm 1 mps 725 mmHg 94%
    05:00 +24°C° 0 mm 1 mps 725 mmHg 92%
    06:00 +25°C° 0 mm 1 mps 726 mmHg 91%
    07:00 +25°C° 0 mm 1 mps 726 mmHg 89%
    08:00 +28°C° 0 mm 1 mps 726 mmHg 77%
    09:00 +31°C° 0 mm 1 mps 727 mmHg 65%
    10:00 +33°C° 0 mm 1 mps 727 mmHg 53%
    11:00 +35°C° 0 mm 1 mps 726 mmHg 48%
    12:00 +37°C° 0 mm 1 mps 725 mmHg 42%
    13:00 +37°C° 0 mm 0 mps 724 mmHg 36%
    14:00 +35°C° 0.1 mm 0 mps 724 mmHg 44%
    15:00 +35°C° 0.1 mm 1 mps 723 mmHg 52%
    16:00 +33°C° 0.1 mm 1 mps 722 mmHg 60%
    17:00 +31°C° 0.6 mm 1 mps 723 mmHg 67%
    18:00 +29°C° 0.6 mm 1 mps 724 mmHg 74%
    19:00 +27°C° 0.6 mm 2 mps 724 mmHg 81%
    20:00 +27°C° 1.3 mm 2 mps 725 mmHg 84%
    21:00 +26°C° 1.3 mm 2 mps 725 mmHg 87%
    22:00 +26°C° 1.3 mm 1 mps 726 mmHg 89%
    23:00 +25°C° 0.3 mm 1 mps 726 mmHg 91%

    20 November, Tuesday

    Time Temperature Precipitation Wind Pressure Humidity
    00:00 +25°C° 0.3 mm 1 mps 726 mmHg 93%
    01:00 +24°C° 0.3 mm 1 mps 725 mmHg 95%
    02:00 +24°C° 0.8 mm 1 mps 725 mmHg 96%
    03:00 +24°C° 0.8 mm 1 mps 725 mmHg 96%
    04:00 +24°C° 0.8 mm 1 mps 725 mmHg 97%
    05:00 +24°C° 0 mm 1 mps 725 mmHg 95%
    06:00 +25°C° 0 mm 1 mps 725 mmHg 94%
    07:00 +25°C° 0 mm 1 mps 726 mmHg 92%
    08:00 +28°C° 0 mm 1 mps 726 mmHg 80%
    09:00 +30°C° 0 mm 1 mps 726 mmHg 68%
    10:00 +34°C° 0 mm 2 mps 727 mmHg 56%
    11:00 +34°C° 0 mm 1 mps 726 mmHg 50%
    12:00 +36°C° 0 mm 1 mps 725 mmHg 45%
    13:00 +39°C° 0 mm 1 mps 725 mmHg 39%
    14:00 +36°C° 0.1 mm 1 mps 724 mmHg 46%
    15:00 +35°C° 0.1 mm 1 mps 724 mmHg 53%
    16:00 +33°C° 0.1 mm 1 mps 723 mmHg 59%
    17:00 +31°C° 0.1 mm 1 mps 724 mmHg 66%
    18:00 +30°C° 0.1 mm 1 mps 724 mmHg 73%
    19:00 +28°C° 0.1 mm 1 mps 725 mmHg 79%
    20:00 +27°C° 0.3 mm 1 mps 725 mmHg 83%
    21:00 +26°C° 0.3 mm 1 mps 725 mmHg 87%
    22:00 +25°C° 0.3 mm 1 mps 726 mmHg 91%
    23:00 +25°C° 0 mm 1 mps 725 mmHg 91%

    21 November, Wednesday

    Time Temperature Precipitation Wind Pressure Humidity
    00:00 +25°C° 0 mm 1 mps 725 mmHg 91%
    01:00 +25°C° 0 mm 1 mps 725 mmHg 92%
    02:00 +24°C° 0.2 mm 1 mps 725 mmHg 93%
    03:00 +24°C° 0.2 mm 1 mps 724 mmHg 95%
    04:00 +24°C° 0.2 mm 1 mps 724 mmHg 96%
    05:00 +24°C° 0 mm 1 mps 725 mmHg 95%
    06:00 +24°C° 0 mm 1 mps 726 mmHg 94%
    07:00 +25°C° 0 mm 1 mps 727 mmHg 93%
    08:00 +27°C° 0.3 mm 1 mps 727 mmHg 87%
    09:00 +28°C° 0.3 mm 1 mps 727 mmHg 81%
    10:00 +30°C° 0.3 mm 1 mps 728 mmHg 74%
    11:00 +31°C° 0.3 mm 1 mps 727 mmHg 68%
    12:00 +32°C° 0.3 mm 1 mps 726 mmHg 62%
    13:00 +34°C° 0.3 mm 2 mps 725 mmHg 55%
    14:00 +33°C° 0.1 mm 1 mps 725 mmHg 58%
    15:00 +32°C° 0.1 mm 1 mps 724 mmHg 61%
    16:00 +30°C° 0.1 mm 0 mps 724 mmHg 64%
    17:00 +28°C° 0.1 mm 0 mps 724 mmHg 71%
    18:00 +26°C° 0.1 mm 0 mps 725 mmHg 77%
    19:00 +25°C° 0.1 mm 0 mps 726 mmHg 84%
    20:00 +24°C° 0 mm 0 mps 726 mmHg 86%
    21:00 +26°C° 0 mm 1 mps 726 mmHg 88%
    22:00 +25°C° 0 mm 1 mps 726 mmHg 90%
    23:00 +25°C° 0 mm 1 mps 726 mmHg 92%

    22 November, Thursday

    Time Temperature Precipitation Wind Pressure Humidity
    00:00 +25°C° 0 mm 1 mps 726 mmHg 93%
    01:00 +24°C° 0 mm 1 mps 725 mmHg 94%
    02:00 +24°C° 0 mm 1 mps 725 mmHg 95%
    03:00 +24°C° 0 mm 1 mps 725 mmHg 95%
    04:00 +24°C° 0 mm 1 mps 725 mmHg 96%
    05:00 +24°C° 0 mm 1 mps 725 mmHg 93%
    06:00 +25°C° 0 mm 1 mps 726 mmHg 90%
    07:00 +25°C° 0 mm 1 mps 726 mmHg 88%
    08:00 +28°C° 0 mm 1 mps 727 mmHg 78%
    09:00 +30°C° 0 mm 1 mps 727 mmHg 69%
    10:00 +32°C° 0 mm 1 mps 727 mmHg 59%
    11:00 +32°C° 0.3 mm 1 mps 726 mmHg 60%
    12:00 +32°C° 0.3 mm 1 mps 725 mmHg 61%
    13:00 +32°C° 0.3 mm 1 mps 725 mmHg 62%
    14:00 +32°C° 0 mm 1 mps 724 mmHg 58%
    15:00 +33°C° 0 mm 1 mps 724 mmHg 54%
    16:00 +33°C° 0 mm 1 mps 723 mmHg 50%
    17:00 +31°C° 0 mm 1 mps 724 mmHg 58%
    18:00 +27°C° 0 mm 0 mps 724 mmHg 65%
    19:00 +25°C° 0 mm 0 mps 725 mmHg 73%
    20:00 +24°C° 0.5 mm 0 mps 725 mmHg 79%
    21:00 +25°C° 0.5 mm 1 mps 725 mmHg 86%
    22:00 +24°C° 0.5 mm 1 mps 726 mmHg 92%
    23:00 +24°C° 0 mm 1 mps 725 mmHg 93%
    Show more